Location: Newark
(48.2308°N, 120.8549°W)
Time: 07:30:31
(UTC+00:00)

Tiangong - Pass Details

Date: 24 June 2021
Orbit: 373 x 386 km, 41.5° (Epoch: 03 August)

Event Time Altitude Azimuth Distance (km) Brightness Sun altitude
Exits shadow 11:11:26 10° 229° (SW) 1,408 3.2 -7.2°
Reaches altitude 10° 11:11:30 10° 228° (SW) 1,388 3.2 -7.2°
Maximum altitude 11:14:02 23° 174° (S) 874 2.5 -6.9°
Drops below altitude 10° 11:16:35 10° 120° (ESE) 1,396 4.1 -6.6°
Sets 11:18:54 0° 105° (ESE) 2,253 5.4 -6.4°
